Flag for Germany Weather past 2 weeks in Lippstadt, North Rhine-Westphalia, Germany

Now
55 °F

Partly sunny.


Feels Like: 52 °F
Forecast: 51 / 62 °F
Wind: 15 mph from Southwest

Location: Paderborn / Lippstadt

Current Time: Jul 8, 2015 at 8:41:30 AM

Latest Report: Jul 8, 2015 at 8:20 AM


Visibility: N/A

Pressure: 29.80 "Hg

Humidity: 82%

Dew point: 50 °F

Location of LippstadtLocation

Historic Weather in Lippstadt — Graph

°F

Lippstadt temperature yesterday

Maximum temperature yesterday: 86 °F (at 1:20 PM)
Minimum temperature yesterday: 52 °F (at 5:20 AM)
Average temperature yesterday: 70 °F

Past Weeks' High & Low Weather Summary

 TemperatureHumidityPressure
High97 °F (Jul 4, 1:50 PM)100% (Jun 24, 3:50 AM)30.27 "Hg (Jun 24, 3:50 AM)
Low46 °F (Jun 23, 7:20 AM)23% (Jul 4, 2:50 PM)29.71 "Hg (Jul 7, 8:50 PM)
Average68 °F61%30.10 "Hg
* Reported Jun 23 7:20 AM — Jul 8 7:20 AM, Lippstadt, Weather by CustomWeather, © 2015

Note: Actual official high and low records may vary slightly from our data, if they occured in-between our weather recording intervals... More about our weather records

Advertising

Lippstadt weather history for previous 24 hours

 ConditionsComfort  
Time TempWeatherWind HumidityBarometerVisibility
7:20 AM
Wed, Jul 8
55 °FScattered clouds.16 mph82%29.77 "HgN/A
6:50 AM55 °FScattered clouds.16 mph82%29.77 "HgN/A
6:20 AM54 °FScattered clouds.13 mph88%29.77 "HgN/A
5:20 AM55 °FPassing clouds.13 mph82%29.77 "HgN/A
4:50 AM55 °FPassing clouds.14 mph88%29.77 "HgN/A
4:20 AM57 °FPassing clouds.15 mph82%29.77 "HgN/A
3:50 AM57 °FCool.14 mph82%29.77 "HgN/A
3:20 AM57 °FPassing clouds.12 mph88%29.77 "HgN/A
2:50 AM59 °FLight rain. Partly cloudy.13 mph88%29.74 "HgN/A
2:20 AM59 °FRain. Partly cloudy.15 mph94%29.74 "Hg5 mi
1:20 AM64 °FClear.9 mph73%29.71 "Hg10 mi
12:50 AM64 °FPassing clouds.8 mph73%29.71 "HgN/A
12:20 AM64 °FPassing clouds.7 mph78%29.74 "HgN/A
11:20 PM
Tue, Jul 7
64 °FPassing clouds.9 mph83%29.74 "HgN/A
10:50 PM64 °FPassing clouds.9 mph83%29.74 "HgN/A
10:20 PM64 °FSunny.8 mph83%29.74 "Hg10 mi
9:50 PM66 °FSunny.9 mph78%29.74 "Hg10 mi
9:20 PM68 °FSunny.10 mph73%29.74 "Hg10 mi
8:50 PM70 °FSunny.14 mph69%29.71 "Hg10 mi
8:20 PM70 °FSunny.16 mph69%29.74 "Hg10 mi
7:50 PM70 °FSunny.17 mph69%29.74 "Hg10 mi
7:20 PM72 °FSunny.17 mph65%29.74 "Hg10 mi
6:50 PM72 °FSunny.17 mph73%29.74 "Hg10 mi
6:20 PM72 °FSunny.10 mph73%29.77 "Hg10 mi
5:50 PM70 °FScattered showers. Partly sunny.8 mph83%29.77 "HgN/A
5:20 PM75 °FThunderstorms. Scattered clouds.10 mph57%29.77 "HgN/A
4:50 PM82 °FScattered clouds.3 mph42%29.74 "HgN/A
4:20 PM82 °FSunny.7 mph42%29.77 "Hg10 mi
3:50 PM82 °FSunny.7 mph42%29.77 "Hg10 mi
3:20 PM84 °FSunny.12 mph33%29.80 "Hg10 mi
2:50 PM84 °FSunny.14 mph31%29.80 "Hg10 mi
2:20 PM86 °FSunny.13 mph29%29.80 "Hg10 mi
1:50 PM86 °FPassing clouds.12 mph29%29.83 "HgN/A
1:20 PM86 °FSunny.14 mph27%29.86 "Hg10 mi
12:50 PM84 °FSunny.14 mph25%29.86 "Hg10 mi
12:20 PM82 °FPassing clouds.9 mph28%29.86 "HgN/A
11:50 AM82 °FPassing clouds.9 mph28%29.89 "HgN/A
11:20 AM81 °FPassing clouds.7 mph34%29.89 "HgN/A
10:50 AM79 °FPassing clouds.6 mph34%29.89 "HgN/A
10:20 AM79 °FSunny.9 mph37%29.92 "Hg10 mi
9:50 AM77 °FSunny.8 mph39%29.92 "Hg10 mi
9:20 AM75 °FPassing clouds.8 mph39%29.95 "HgN/A
8:50 AM72 °FPassing clouds.5 mph44%29.95 "HgN/A
8:20 AM70 °FSunny.2 mph50%29.95 "Hg10 mi
Weather by CustomWeather, © 2015

See weather overviewHow to use our weather pages